Wilmington, OH

6:28 PM EST on February 27, 2017 (GMT -0500)
Airborne

Weather History for KILN - December, 2013

Change the Weather History Date:

Saturday, December 21, 2013

  Actual Average (KFFO) Record (KFFO)
Temperature  
Mean Temperature 60 °F -  
Max Temperature 66 °F 35 °F 66 °F (2013)
Min Temperature 55 °F 20 °F 1 °F (2008)
Degree Days  
Heating Degree Days 4    
Growing Degree Days 10 (Base 50)    
Moisture  
Dew Point 58 °F    
Average Humidity 93    
Maximum Humidity 100    
Minimum Humidity 79    
Precipitation  
Precipitation 1.23 in - - ()
Sea Level Pressure  
Sea Level Pressure 29.72 in    
Wind  
Wind Speed 17 mph (SSW)    
Max Wind Speed 32 mph    
Max Gust Speed 51 mph    
Visibility 6 miles    
Events Rain    
Averages and records for this station are not official NWS values.
T = Trace of Precipitation, MM = Missing Value Source: NWS Daily Summary

Daily Weather History Graph

Daily Weather History Graph

Search for Another Location

Airport or City:

Trip Planner

Search our weather history database for the weather conditions in past years. The results will help you decide how hot, cold, wet, or windy it might be!

Date:

Astronomy

Dec. 21, 2013 Rise Set
Actual Time 7:51 AM EST 5:15 PM EST
Civil Twilight 7:21 AM EST 5:45 PM EST
Nautical Twilight 6:47 AM EST 6:19 PM EST
Astronomical Twilight 6:15 AM EST 6:51 PM EST
Moon 9:29 PM EST (12/21) 10:18 AM EST (12/21)
Length of Visible Light 10h 23m
Length of Day
9h 23m
Waning Gibbous, 84% of the Moon is Illuminated
Dec 21
Waning Gibbous
Dec 25
Last Quarter
Jan 1
New
Jan 7
First Quarter
Jan 15
Full

Hourly Weather History & Observations

Time (EST) Temp. Dew Point Humidity Pressure Visibility Wind Dir Wind Speed Gust Speed Precip Events Conditions
12:54 AM 57.0 °F 54.0 °F 89% 29.85 in 10.0 mi SSW 18.4 mph 24.2 mph N/A   Overcast
1:54 AM 57.0 °F 54.0 °F 89% 29.84 in 10.0 mi South 16.1 mph - N/A   Overcast
2:15 AM 57.0 °F 53.1 °F 87% 29.82 in 10.0 mi South 17.3 mph - N/A   Overcast
2:54 AM 57.0 °F 53.1 °F 87% 29.84 in 10.0 mi South 16.1 mph - 0.00 in Rain Light Rain
3:54 AM 55.9 °F 53.1 °F 90% 29.82 in 9.0 mi South 16.1 mph - 0.02 in Rain Light Rain
4:01 AM 55.9 °F 53.1 °F 90% 29.81 in 10.0 mi South 16.1 mph - 0.00 in Rain Light Rain
4:10 AM 55.9 °F 53.1 °F 90% 29.81 in 10.0 mi SSW 15.0 mph - 0.00 in Rain Light Rain
4:54 AM 55.9 °F 54.0 °F 93% 29.82 in 9.0 mi SSW 15.0 mph - 0.03 in Rain Light Rain
5:54 AM 55.9 °F 54.0 °F 93% 29.81 in 9.0 mi SSW 18.4 mph - 0.03 in Rain Light Rain
6:54 AM 57.0 °F 55.0 °F 93% 29.81 in 5.0 mi South 16.1 mph - 0.04 in Rain Rain
7:02 AM 57.0 °F 55.9 °F 96% 29.79 in 4.0 mi SSW 15.0 mph - 0.02 in Rain Rain
7:31 AM 57.0 °F 55.9 °F 96% 29.79 in 6.0 mi SSW 13.8 mph - 0.05 in Rain Light Rain
7:54 AM 57.0 °F 55.9 °F 96% 29.79 in 7.0 mi South 17.3 mph - 0.07 in Rain Light Rain
8:54 AM 57.0 °F 55.9 °F 96% 29.80 in 6.0 mi South 15.0 mph - 0.05 in Rain Light Rain
9:27 AM 57.9 °F 55.9 °F 93% 29.79 in 4.0 mi South 17.3 mph 26.5 mph 0.04 in Rain Rain
9:38 AM 57.9 °F 55.9 °F 93% 29.79 in 2.5 mi South 17.3 mph 26.5 mph 0.07 in Rain Rain
9:43 AM 57.0 °F 57.0 °F 100% 29.79 in 1.8 mi South 17.3 mph 24.2 mph 0.10 in Rain Heavy Rain
9:54 AM 57.9 °F 57.0 °F 97% 29.82 in 1.8 mi SSW 13.8 mph - 0.18 in Rain Heavy Rain
10:06 AM 57.9 °F 57.0 °F 97% 29.81 in 2.5 mi SSW 13.8 mph - 0.04 in Rain Rain
10:14 AM 57.9 °F 57.0 °F 97% 29.80 in 4.0 mi SSW 17.3 mph 23.0 mph 0.06 in Rain Rain
10:52 AM 57.2 °F 57.2 °F 100% 29.80 in 4.0 mi South 17.3 mph 23.0 mph 0.10 in Rain Light Rain
10:54 AM 57.9 °F 57.0 °F 97% 29.81 in 5.0 mi South 13.8 mph 23.0 mph 0.10 in Rain Light Rain
11:02 AM 57.9 °F 57.0 °F 97% 29.78 in 5.0 mi South 16.1 mph - 0.01 in Rain Light Rain
11:54 AM 59.0 °F 57.0 °F 93% 29.76 in 4.0 mi South 15.0 mph - 0.07 in Rain Rain
12:25 PM 59.0 °F 57.0 °F 93% 29.74 in 5.0 mi South 15.0 mph - 0.04 in Rain Light Rain
12:33 PM 59.0 °F 57.0 °F 93% 29.74 in 6.0 mi South 15.0 mph - 0.04 in Rain Light Rain
12:40 PM 59.0 °F 57.0 °F 93% 29.74 in 3.0 mi SSW 17.3 mph - 0.06 in Rain Rain
12:49 PM 59.0 °F 57.2 °F 94% 29.74 in 2.5 mi SSW 12.7 mph - 0.09 in Rain Rain
12:54 PM 59.0 °F 57.0 °F 93% 29.74 in 2.5 mi SSW 16.1 mph - 0.10 in Rain Rain
1:03 PM 59.0 °F 57.0 °F 93% 29.73 in 6.0 mi SSW 12.7 mph - 0.01 in Rain Light Rain
1:40 PM 59.0 °F 57.9 °F 96% 29.71 in 1.8 mi SSW 13.8 mph - 0.06 in Rain Rain
1:49 PM 59.0 °F 57.2 °F 94% 29.71 in 3.0 mi SSW 13.8 mph - 0.08 in Rain Light Rain
1:54 PM 59.0 °F 57.9 °F 96% 29.72 in 8.0 mi SSW 15.0 mph - 0.08 in Rain Light Rain
2:22 PM 60.1 °F 57.9 °F 93% 29.72 in 7.0 mi SSW 15.0 mph 25.3 mph 0.01 in Rain Light Rain
2:54 PM 61.0 °F 59.0 °F 93% 29.71 in 10.0 mi SSW 15.0 mph - 0.01 in   Overcast
3:08 PM 61.0 °F 59.0 °F 93% 29.70 in 10.0 mi SSW 15.0 mph - N/A   Overcast
3:54 PM 62.1 °F 59.0 °F 90% 29.71 in 10.0 mi SSW 13.8 mph 23.0 mph 0.00 in Rain Light Rain
4:54 PM 63.0 °F 60.1 °F 90% 29.70 in 10.0 mi SSW 13.8 mph - 0.00 in Rain Light Rain
5:22 PM 64.0 °F 61.0 °F 90% 29.70 in 10.0 mi SSW 19.6 mph - 0.00 in   Mostly Cloudy
5:51 PM 64.4 °F 60.8 °F 88% 29.69 in 10.0 mi SSW 18.4 mph 26.5 mph 0.00 in   Mostly Cloudy
5:54 PM 64.0 °F 61.0 °F 90% 29.70 in 10.0 mi South 13.8 mph 26.5 mph 0.00 in   Mostly Cloudy
6:54 PM 63.0 °F 61.0 °F 93% 29.68 in 10.0 mi South 15.0 mph - 0.02 in Rain Light Rain
7:09 PM 63.0 °F 61.0 °F 93% 29.67 in 10.0 mi South 19.6 mph 26.5 mph 0.00 in   Mostly Cloudy
7:54 PM 63.0 °F 61.0 °F 93% 29.66 in 9.0 mi South 19.6 mph 28.8 mph 0.01 in Rain Light Rain
8:11 PM 63.0 °F 61.0 °F 93% 29.64 in 9.0 mi South 20.7 mph 26.5 mph 0.01 in Rain Light Rain
8:28 PM 63.0 °F 61.0 °F 93% 29.63 in 9.0 mi South 19.6 mph 28.8 mph 0.01 in Rain Light Rain
8:54 PM 63.0 °F 61.0 °F 93% 29.59 in 10.0 mi South 21.9 mph 28.8 mph 0.02 in   Overcast
9:04 PM 63.0 °F 61.0 °F 93% 29.57 in 10.0 mi South 18.4 mph 27.6 mph N/A   Mostly Cloudy
9:54 PM 64.9 °F 61.0 °F 87% 29.50 in 10.0 mi South 26.5 mph 41.4 mph N/A   Mostly Cloudy
10:54 PM 66.9 °F 60.1 °F 79% 29.46 in 10.0 mi South 27.6 mph 38.0 mph N/A   Overcast
11:17 PM 63.0 °F 62.1 °F 97% 29.50 in 1.8 mi SSW 32.2 mph 50.6 mph 0.00 in Rain Heavy Rain
11:29 PM 61.0 °F 60.1 °F 97% 29.54 in 2.0 mi WSW 26.5 mph 42.6 mph 0.20 in Rain Rain
11:42 PM 61.0 °F 60.1 °F 97% 29.56 in 1.8 mi SW 24.2 mph 34.5 mph 0.30 in Rain Heavy Rain
11:51 PM 60.8 °F 60.8 °F 100% 29.58 in 1.8 mi SW 25.3 mph 34.5 mph 0.39 in Rain Heavy Rain
11:52 PM 60.8 °F 60.8 °F 100% 29.57 in 2.0 mi SW 24.2 mph 34.5 mph 0.40 in Rain Heavy Rain
11:54 PM 61.0 °F 60.1 °F 97% 29.57 in 2.5 mi WSW 19.6 mph 34.5 mph 0.40 in Rain Rain